Theta_e
350 350 349 349 348 347 341 347 345 343 345 345 343 338 342 337 337 340 339 338 344 341 339 342 342 341 343 341 342 351 352 350 353 353 351 352 351 351 346 346 347 350 350
351 350 349 349 349 349 343 342 345 345 345 344 344 343 337 342 338 344 340 340 341 342 339 340 340 339 341 347 347 346 353 353 353 353 351 351 350 350 351 350 349 349 348
351 350 350 350 349 348 347 346 348 344 344 344 344 342 343 344 343 344 340 341 339 343 342 341 340 338 338 350 350 351 351 351 353 349 348 351 352 352 351 348 350 350 348
350 351 350 350 349 347 347 346 346 345 345 344 345 346 345 343 341 342 343 340 340 337 342 341 339 336 346 350 351 352 351 351 351 353 354 347 349 351 349 350 349 349 347
348 350 350 349 349 349 347 339 338 347 345 342 346 345 345 345 343 341 342 338 340 340 341 339 337 346 350 351 349 348 346 348 352 352 351 353 353 353 351 349 347 347 348
347 349 350 350 350 350 349 348 338 340 344 341 343 343 344 344 342 340 341 335 337 337 338 335 347 347 347 349 349 347 347 349 348 349 349 351 353 352 351 348 347 346 348
347 348 349 349 350 350 349 349 347 345 343 340 345 344 343 339 339 338 336 337 339 341 344 347 345 347 348 347 346 347 346 347 350 350 351 351 352 350 348 349 349 347 347
347 348 349 349 350 352 351 350 350 344 343 341 341 339 339 340 336 336 344 346 345 345 345 343 347 348 348 349 350 351 350 350 350 349 346 346 347 343 347 349 348 348 346
347 347 349 350 349 350 351 351 350 349 342 341 338 338 342 341 341 342 343 341 342 343 347 349 348 349 351 352 351 351 349 347 346 345 343 345 345 347 345 347 346 348 345
347 348 349 349 350 350 351 350 351 346 349 340 338 338 339 339 339 339 341 345 346 346 348 349 349 352 351 350 346 345 343 338 340 341 339 342 342 341 341 342 339 339 344
348 348 348 348 349 350 351 350 351 345 344 343 339 336 339 340 343 343 345 344 346 345 347 351 352 350 345 341 341 341 338 336 337 334 330 326 325 334 334 335 335 336 342
349 349 349 348 349 350 351 351 351 349 347 343 344 344 345 346 348 348 344 346 347 349 351 350 340 338 340 340 338 336 335 333 330 325 323 329 331 331 332 331 333 333 334
349 349 349 349 350 350 350 350 351 351 349 347 347 348 348 347 346 347 347 348 350 351 348 334 336 337 337 333 331 331 329 330 326 322 325 327 325 320 326 326 328 327 328
348 347 347 348 350 352 352 352 351 351 351 351 347 353 355 348 347 348 350 351 350 345 331 334 335 333 329 327 327 325 326 330 329 329 326 321 321 324 323 324 323 323 322
347 346 345 348 351 354 355 354 354 353 345 350 355 356 354 352 349 350 351 350 345 331 331 331 331 328 324 328 322 327 330 330 330 329 326 314 313 313 321 323 322 323 321
344 344 345 349 352 355 357 357 357 356 351 357 358 352 348 349 351 352 351 350 334 330 329 329 327 323 325 316 317 330 329 328 327 326 325 318 317 315 314 314 314 313 323
342 344 345 350 352 355 357 358 359 359 356 352 354 349 347 349 351 351 351 342 330 328 329 326 318 316 315 316 316 321 323 320 319 324 323 321 321 324 324 318 317 314 312
341 344 346 350 353 354 355 356 359 352 350 351 352 351 350 352 352 350 347 330 327 327 324 317 317 314 311 311 311 309 312 318 320 321 322 322 320 320 323 320 320 319 310
342 344 345 350 354 354 357 357 353 349 349 350 351 353 354 355 353 352 337 327 326 324 318 317 316 312 309 308 308 316 319 320 320 319 319 320 315 314 313 319 319 318 316
344 344 345 348 353 355 353 346 347 348 349 350 351 353 354 355 354 351 329 327 325 323 323 318 317 315 311 310 310 318 319 320 319 320 315 315 314 314 312 317 317 316 315
345 347 346 348 352 346 345 346 347 348 349 349 351 353 354 356 354 343 326 325 324 324 319 317 318 318 313 311 313 318 320 320 320 321 320 315 314 313 312 309 308 308 312
345 348 347 349 348 343 344 344 347 347 348 349 351 353 355 355 352 332 324 324 323 322 319 318 320 320 316 313 313 315 319 319 321 320 319 315 314 312 310 308 307 309 313
345 348 348 352 345 343 344 345 345 346 347 349 351 354 356 355 348 326 324 324 323 327 327 328 327 324 320 316 314 314 315 316 321 321 317 314 313 314 315 308 307 313 313
346 348 350 355 346 341 343 345 345 345 347 349 351 355 356 354 338 325 324 325 327 329 327 327 328 328 324 321 316 313 314 316 317 316 315 315 315 313 312 314 314 314 312
347 349 350 354 344 340 341 343 345 344 347 348 352 355 356 352 328 327 325 329 327 326 324 324 326 328 326 323 318 318 318 319 321 319 317 318 318 318 316 315 315 314 314
349 352 352 355 354 345 341 342 342 344 346 348 352 355 352 344 328 328 326 326 325 316 313 320 325 327 326 319 312 313 315 317 317 319 320 320 319 318 316 315 315 315 314
Wind_Speed
15 14 12 11 9 8 6 12 13 18 17 16 21 21 15 18 16 14 16 16 11 8 5 3 6 8 10 15 17 15 13 13 11 12 11 9 7 8 7 3 5 8 9
16 18 16 14 11 10 8 13 15 15 16 18 16 15 18 14 15 11 18 16 15 13 8 9 10 12 14 15 17 15 11 10 9 9 9 6 8 5 5 6 8 10 8
19 21 20 17 14 12 11 13 15 16 16 17 15 16 14 13 13 12 15 19 18 15 15 14 14 16 19 14 15 11 12 11 10 9 7 7 5 12 3 6 8 10 9
18 20 21 19 17 15 13 14 15 14 14 17 14 14 14 14 13 10 9 10 17 17 17 16 16 20 17 14 12 11 11 11 11 10 9 9 11 9 8 8 7 8 8
20 21 20 19 18 17 16 15 15 14 14 13 12 12 12 11 12 11 9 8 12 14 13 14 18 17 13 12 12 12 11 9 10 11 10 10 6 7 8 10 11 9 6
22 19 19 20 20 18 17 16 16 14 13 11 10 10 9 9 10 9 6 6 7 8 12 17 15 12 13 10 5 11 11 11 9 9 8 7 6 7 8 11 10 8 5
25 23 23 22 22 21 19 17 16 15 13 12 11 9 9 12 12 8 7 5 8 11 11 9 8 10 11 12 17 13 8 9 8 7 6 6 7 8 7 8 9 7 5
25 25 25 23 23 22 21 18 16 14 13 15 15 14 12 10 9 7 2 3 3 4 5 6 8 10 9 8 8 7 7 8 8 8 8 7 6 8 6 7 8 8 2
25 26 25 23 22 22 22 20 18 17 15 14 15 13 13 12 8 8 7 6 3 5 6 8 7 9 8 7 5 6 7 5 4 5 6 4 5 7 6 5 5 6 8
24 25 26 24 22 22 22 21 20 20 17 19 19 13 12 9 10 11 4 2 4 7 7 7 8 7 5 5 1 2 4 4 3 3 3 2 3 4 5 7 6 4 4
26 26 25 24 22 22 23 22 21 23 23 23 20 17 11 9 7 7 6 3 3 5 7 5 4 4 5 4 2 2 2 2 2 4 6 6 6 6 7 6 7 8 7
27 26 26 26 23 23 24 23 23 21 23 24 22 19 16 14 13 10 7 7 7 6 5 5 5 5 4 2 2 2 3 6 6 7 7 7 7 10 10 9 10 9 9
26 26 26 28 26 24 24 24 23 22 22 23 22 21 19 15 12 9 9 11 8 5 4 3 4 5 5 4 5 7 7 8 8 9 9 9 9 10 10 10 10 10 10
28 28 27 28 27 25 25 24 23 22 22 21 20 18 16 16 13 12 11 8 6 4 4 6 7 7 7 7 7 7 8 8 9 9 8 8 8 10 11 11 12 12 10
27 28 28 28 27 26 25 25 23 23 23 21 19 18 17 15 13 12 9 7 7 6 8 10 9 8 8 6 8 8 8 9 9 9 10 11 13 13 12 10 12 12 10
29 29 29 29 28 28 27 25 24 22 22 21 20 19 19 15 12 10 10 8 7 11 11 11 10 9 8 9 11 11 9 9 9 9 9 11 12 13 13 14 12 13 10
30 30 32 31 30 29 28 28 26 23 22 20 20 21 20 18 16 14 11 10 13 14 13 12 10 9 10 12 11 14 10 10 10 10 10 7 7 9 9 11 11 10 10
32 32 31 29 28 27 27 26 25 25 23 23 22 21 21 20 16 14 14 15 15 15 14 12 11 10 11 12 11 11 12 13 13 11 10 9 8 7 7 6 7 8 9
33 32 33 31 30 29 28 28 27 26 25 25 25 23 20 19 16 17 16 17 18 17 15 13 12 11 11 13 12 14 12 11 11 11 10 9 9 8 7 6 6 7 8
32 29 30 30 30 29 30 30 29 28 27 27 23 22 21 19 18 16 19 20 18 17 16 15 13 11 11 15 15 16 10 10 8 8 10 9 7 8 8 7 7 6 7
28 29 31 35 33 34 33 32 30 30 28 27 24 23 20 19 18 19 22 21 20 18 17 16 14 13 13 16 16 18 10 8 8 6 6 5 6 9 9 8 7 7 7
27 29 31 36 38 38 36 34 32 31 29 27 25 24 23 22 21 22 23 22 21 20 18 17 15 15 15 15 15 14 13 12 7 7 5 4 6 8 9 8 9 9 11
29 29 32 37 42 41 39 37 32 31 30 27 27 26 25 24 23 24 24 24 22 19 18 17 15 15 16 16 14 13 12 10 8 7 7 2 4 9 9 8 8 9 6
26 29 31 33 41 43 40 38 34 32 30 29 30 29 28 26 26 27 25 23 22 19 18 18 17 16 17 16 17 15 13 11 9 7 4 3 3 4 3 8 6 4 4
23 27 32 35 44 46 42 39 37 35 31 31 31 30 29 28 29 25 25 21 20 19 19 18 18 19 19 18 17 16 12 10 11 10 6 3 2 0 1 2 3 3 3
22 26 28 30 35 42 45 42 38 35 33 33 33 31 29 30 28 26 28 26 23 21 20 20 17 17 16 17 16 17 17 15 12 9 6 4 3 1 1 2 4 5 5
Wind_Direction
204 195 192 187 172 167 172 176 175 182 187 194 183 182 188 196 195 199 205 205 208 216 216 286 304 307 311 310 311 312 310 323 319 329 323 320 297 252 328 312 336 350 337
195 192 190 189 176 174 163 171 174 176 183 183 181 187 198 204 212 213 212 212 221 228 242 281 295 305 312 308 306 308 308 314 307 322 313 314 321 321 314 334 356 345 341
193 191 189 188 178 176 167 173 174 180 176 184 185 191 187 199 211 215 224 224 227 236 250 279 291 299 308 303 298 304 302 298 312 309 309 333 316 334 330 328 356 349 3
192 190 189 187 182 178 167 169 170 180 182 190 193 197 201 207 210 211 232 225 234 242 253 273 287 295 301 292 292 303 297 311 309 308 288 299 293 318 324 324 346 345 0
193 187 189 187 184 181 180 176 170 174 176 180 185 200 197 216 218 216 223 240 247 248 262 271 287 297 293 290 295 295 293 305 300 285 296 298 302 298 303 321 329 338 1
190 181 182 183 183 184 184 185 189 181 177 173 180 180 189 191 189 171 177 180 213 236 264 280 292 289 289 295 302 316 287 295 304 298 304 306 305 310 315 314 322 337 350
183 179 177 181 181 186 186 188 188 188 188 186 183 177 164 147 155 166 185 213 242 251 263 271 274 287 285 278 281 299 309 299 301 303 309 318 324 314 314 310 321 324 344
183 183 182 181 182 184 188 188 188 193 185 169 163 156 144 149 165 191 183 170 184 245 241 231 292 297 299 296 292 294 304 304 297 296 295 312 313 309 318 321 328 329 140
187 188 183 182 182 182 187 186 187 184 177 176 165 157 146 160 160 171 162 126 115 121 305 302 299 299 296 287 283 292 296 301 319 332 318 340 335 337 343 343 337 337 319
181 181 181 184 183 184 186 183 187 185 179 168 152 143 130 136 149 146 153 288 293 283 283 281 286 282 276 274 270 13 292 314 14 5 325 20 359 2 359 344 344 322 333
175 176 179 182 181 180 184 183 188 188 184 181 173 167 187 211 227 225 248 253 297 282 268 255 254 256 250 227 233 293 316 44 53 72 73 69 66 53 39 35 28 17 42
171 173 175 177 177 179 181 183 187 194 184 190 195 207 210 214 218 222 231 263 265 229 222 222 227 214 200 192 182 137 107 100 88 76 67 61 54 51 57 41 53 54 45
169 170 173 178 179 179 179 183 187 191 185 187 192 194 199 200 208 214 226 231 218 190 184 186 171 169 170 143 128 120 105 97 88 81 74 68 64 69 61 67 65 51 55
172 172 176 180 181 182 180 181 184 185 180 181 188 183 181 193 197 209 214 199 179 181 169 162 164 153 128 120 115 114 114 101 93 84 79 78 72 67 59 60 54 61 53
177 177 178 180 181 181 178 176 179 183 180 179 180 178 178 180 197 204 199 192 173 167 168 161 151 138 117 123 128 124 116 111 102 86 76 82 79 75 87 68 64 64 64
184 182 180 181 183 184 177 174 174 178 179 175 177 180 188 192 194 194 185 186 169 165 159 151 151 142 146 150 143 126 126 115 102 97 93 84 77 77 71 64 57 53 59
188 186 186 185 185 185 181 178 177 178 182 183 181 186 190 189 189 192 185 175 160 158 153 153 147 144 146 137 134 127 122 111 108 107 104 94 87 75 56 47 46 40 35
193 193 189 186 185 184 184 180 180 186 191 193 192 191 192 195 193 187 178 164 161 159 157 153 148 145 140 134 135 129 120 115 110 104 100 100 98 93 77 50 40 36 19
199 197 192 187 182 181 181 182 186 190 196 201 200 198 198 195 188 185 172 167 164 161 160 155 149 146 145 137 134 123 122 118 112 109 107 96 84 67 53 44 41 42 36
203 196 191 185 183 182 184 188 190 194 200 203 201 199 198 195 189 181 175 173 168 166 162 159 154 150 150 142 142 127 134 122 120 107 99 96 68 41 34 52 54 43 32
196 197 188 186 183 189 190 191 196 200 201 204 199 200 197 193 189 182 179 175 169 173 169 168 164 160 157 150 145 138 145 130 122 114 112 89 51 30 29 40 44 43 59
191 190 185 185 188 193 193 194 201 204 205 205 199 199 196 192 190 186 178 179 181 179 175 176 169 171 165 161 155 151 153 145 136 133 145 77 39 23 28 34 32 45 44
194 190 186 186 192 195 196 197 202 207 209 201 200 197 194 194 191 186 185 183 184 182 177 176 172 175 179 177 171 164 158 152 138 163 164 86 41 37 18 21 25 46 20
198 192 188 188 190 196 199 202 205 211 205 197 198 196 196 195 192 188 189 187 185 184 183 182 182 184 183 186 186 180 176 170 172 174 158 73 74 61 43 26 12 23 25
201 196 194 196 195 195 196 200 204 207 200 198 197 197 197 196 191 186 189 190 194 191 188 187 187 187 190 192 189 183 180 180 188 167 177 155 151 27 355 349 352 360 6
204 198 198 198 195 194 194 197 204 204 201 197 197 195 193 188 188 188 193 194 198 196 194 187 185 193 194 204 193 190 187 189 185 170 184 189 207 257 292 314 346 344 348